Weather in Rassvet

Russia / Tyumen Oblast     56°32′14″N   65°44′03″E
temp.,
°C
wind,
m/s
gust,
m/s
humid.,
%
clouds,
%
prec.,
mm/h
press.,
hPa
HPBL,
m
23 april, fri
fri2323:00+8sse7146197 0.0 1035445
02:00+6sse6136298 0.0 1035334
05:00+5sse41168100 0.0 1034239
08:00+8s51168100 0.0 1034384
11:00+10s5757100 0.0 1035727
14:00+13s7945100 0.0 10341332
17:00+14s71043100 0.0 10322121
20:00+11s51049100 0.1 1032358
24 april, sat
sat2423:00+8sse41151100 0.1 1032367
02:00+6sse4955100 0.0 1030253
05:00+5sse4958100 0.0 1029215
08:00+7sse4755100 0.0 1028299
11:00+9sse3553100 0.0 1027648
14:00+9se5751100 0.0 1026769
17:00+11se6845100 0.0 10241549
20:00+9se51049100 0.0 1023345
25 april, sun
sun2523:00+7sse61151100 0.0 1022494
02:00+6ese3765100 0.0 1021199
05:00+6ese51060100 0.0 1019389
08:00+6ese5858100 0.0 1018477
11:00+10se6753100 0.0 10171282
14:00+13ese674039 0.0 10161534
17:00+15se45349 0.0 10141999
20:00+11se35495 0.0 101368
26 april, mon
mon2623:00+8s397899 0.0 1013175
02:00+7wsw511895 0.0 1013498
05:00+5sw410880 0.0 1014284
08:00+8wsw812594 0.0 10151003
11:00+9wsw9115797 0.1 10161530
14:00+10w9105096 0.1 10171904
17:00+11w6104221 0.1 10172350
20:00+8wsw4850100 0.0 1018150
27 april, tue
tue2723:00+7sw3757100 0.0 1018130
02:00+6sw3358100 0.0 101740
05:00+6ssw2257100 0.0 101620
08:00+8s4756100 0.0 1015444
11:00+9s3362100 0.0 1014893
14:00+11ese3450100 0.0 10121443
17:00+10se4457100 0.0 1010861
20:00+7sse3476100 0.0 101096